User: anonymous   Login
Location: Unspecified
(0.0000°N, 0.0000°E)
Time: 09:11:21
(UTC+00:00)
Language:

Vanguard 1 - Orbit

View from above orbital plane
View from above orbital plane
View from above satellite
View from above satellite

Ground track
Ground track

The orbit data is extracted from the following two-line orbital elements,

1     5U 58002B   20093.39061355  .00000149  00000-0  20256-3 0  9998
2     5  34.2455 102.6496 1847076  10.0076 353.2613 10.84829726197091
Epoch (UTC): 02 April 2020 09:22:29
Eccentricity: 0.1847076
inclination: 34.2455°
perigee height: 649 km
apogee height: 3834 km
right ascension of ascending node: 102.6496°
argument of perigee: 10.0076°
revolutions per day: 10.84829726
mean anomaly at epoch: 353.2613°
orbit number at epoch: 19709

The dashed part of the orbit path shows where the satellite is in the earth's shadow,  

DLR